Weather History for Dundee, United Kingdom

Change the Weather History Date:

Friday, October 12, 2012

  Actual Average Record
Temperature  
Mean Temperature 47 °F -  
Max Temperature 50 °F 51 °F 64 °F (2007)
Min Temperature 44 °F 44 °F 44 °F (2012)
Degree Days  
Heating Degree Days 18    
Moisture  
Dew Point 45 °F    
Average Humidity 93    
Maximum Humidity 100    
Minimum Humidity 87    
Precipitation  
Precipitation 0.00 in - - ()
Sea Level Pressure  
Sea Level Pressure 29.40 in    
Wind  
Wind Speed 13 mph ()    
Max Wind Speed 22 mph    
Max Gust Speed -    
Visibility 5.3 miles    
Events Rain    
Averages and records for this station are not official NWS values.
T = Trace of Precipitation, MM = Missing Value Source: Averaged Metar Reports

Daily Weather History Graph

Daily Weather History Graph

Search for Another Location

Airport:

Trip Planner

Search our weather history database for the weather conditions in past years. The results will help you decide how hot, cold, wet, or windy it might be!

Date:

Astronomy

Oct. 12, 2012 Rise Set
Actual Time 7:38 AM BST 6:17 PM BST
Civil Twilight 7:00 AM BST 6:55 PM BST
Nautical Twilight 6:17 AM BST 7:38 PM BST
Astronomical Twilight 5:33 AM BST 8:22 PM BST
Moon 3:32 AM BST (10/12) 4:45 PM BST (10/12)
Length of Visible Light 11h 54m
Length of Day
10h 38m
Waning Crescent, 12% of the Moon is Illuminated
Oct 12
Waning Crescent
Oct 15
New
Oct 22
First Quarter
Oct 29
Full
Nov 7
Last Quarter

Hourly Weather History & Observations

Time (BST) Temp. Windchill Dew Point Humidity Pressure Visibility Wind Dir Wind Speed Gust Speed Precip Events Conditions
7:50 AM 48.2 °F - 46.4 °F 93% 29.42 in 3.1 mi East 15.0 mph - N/A Rain Rain
8:20 AM 48.2 °F - 48.2 °F 100% 29.39 in 3.1 mi East 15.0 mph - N/A Rain Rain
8:50 AM 50.0 °F - 48.2 °F 94% 29.39 in 3.1 mi East 15.0 mph - N/A Rain Rain
9:20 AM 48.2 °F - 48.2 °F 100% 29.39 in 3.1 mi East 13.8 mph - N/A Rain Rain
9:50 AM 50.0 °F - 48.2 °F 94% 29.39 in 3.1 mi East 13.8 mph - N/A Rain Rain
10:20 AM 50.0 °F - 48.2 °F 94% 29.39 in 3.7 mi East 13.8 mph - N/A Rain Rain
10:50 AM 48.2 °F - 46.4 °F 93% 29.39 in 3.7 mi East 15.0 mph - N/A Rain Rain
11:20 AM 50.0 °F - 48.2 °F 94% 29.39 in 4.3 mi East 8.1 mph - N/A Rain Light Rain
11:50 AM 48.2 °F - 46.4 °F 93% 29.39 in 5.0 mi SW 9.2 mph - N/A Rain Light Rain
12:20 PM 48.2 °F - 46.4 °F 93% 29.39 in 6.2 mi SW 10.4 mph - N/A Rain Light Rain
12:50 PM 46.4 °F 40.7 °F 46.4 °F 100% 29.39 in 6.2 mi WSW 12.7 mph - N/A Rain Light Rain
1:20 PM 46.4 °F 40.4 °F 46.4 °F 100% 29.39 in 6.2 mi WSW 13.8 mph - N/A Rain Light Rain
1:50 PM 46.4 °F 40.4 °F 44.6 °F 93% 29.39 in 6.2 mi WSW 13.8 mph - N/A Rain Rain
2:20 PM 46.4 °F 39.8 °F 44.6 °F 93% 29.36 in 6.2 mi WSW 16.1 mph - N/A Rain Light Rain
2:50 PM 48.2 °F - 46.4 °F 93% 29.36 in 6.2 mi WSW 16.1 mph - N/A Rain Light Rain
3:50 PM 46.4 °F 39.0 °F 44.6 °F 93% 29.36 in 6.2 mi WSW 19.6 mph - N/A Rain Light Rain
4:20 PM 46.4 °F 39.0 °F 44.6 °F 93% 29.39 in 6.2 mi West 19.6 mph - N/A   Mostly Cloudy
4:50 PM 46.4 °F 40.1 °F 42.8 °F 87% 29.39 in 6.2 mi West 15.0 mph - N/A   Mostly Cloudy
5:20 PM 44.6 °F 37.8 °F 42.8 °F 93% 29.39 in 6.2 mi West 15.0 mph - N/A   Mostly Cloudy
5:50 PM 44.6 °F 36.6 °F 42.8 °F 93% 29.42 in 6.2 mi West 19.6 mph - N/A   Mostly Cloudy
6:20 PM 44.6 °F 36.6 °F 42.8 °F 93% 29.42 in 6.2 mi West 19.6 mph - N/A Rain Light Rain Showers
6:50 PM 44.6 °F 36.1 °F 42.8 °F 93% 29.42 in 6.2 mi West 21.9 mph - N/A Rain Light Rain Showers
7:50 PM 44.6 °F 37.2 °F 41.0 °F 87% 29.42 in 6.2 mi West 17.3 mph - N/A   Mostly Cloudy
8:20 PM 44.6 °F 36.6 °F 41.0 °F 87% 29.42 in 6.2 mi West 19.6 mph - N/A   Mostly Cloudy
8:50 PM 44.6 °F 37.8 °F 41.0 °F 87% 29.42 in 6.2 mi West 15.0 mph - N/A   Mostly Cloudy
9:20 PM 44.6 °F 38.4 °F 41.0 °F 87% 29.42 in 6.2 mi West 12.7 mph - N/A   Mostly Cloudy
9:50 PM 44.6 °F 37.4 °F 41.0 °F 87% 29.44 in 6.2 mi West 16.1 mph - N/A   Mostly Cloudy